STARLINK-33583, 63503

Orbit data source: Space-Track

STARLINK-33583, 63503 is a payload satellite owned by SpaceX/Seattle (US) in LEO that was launched on Mon, 07 Apr 2025 UTC via an FALCON 9 launch vehicle from the Air Force Western Test Range (AFWTR). Payload-class satellites include a variety of spacecraft equipped with specific instruments for various scientific and technological missions. These include communications satellites like Starlink; space stations such as the ISS; scientific satellites like the Hubble; Earth observation satellites from companies like Planet Labs, Umbra, and HawkEye 360; GPS; miniature CubeSats for education and research; and military/defense satellites.

Loading next visibility...
Identifier
63503, 2025-071L
Orbit
LEO
Country
Flag of USUS
Related business
Manufacturer
SpaceX/Seattle
Mission
Operational Commercial Communications
Bus & Motor
STARLINK V2MO, Unknown motor
Mass
575 kg wet, ~530 kg dry
Launch date (UTC)
2025-04-07 (1 year ago)
Launch vehicle
FALCON 9
Launch site
Air Force Western Test Range (AFWTR)
Object type
Payload
Rocket body
Debris
Shape & HBR
Box + 2 Pan, 17.7 m
Radar Cross Section
36.964 m², Large (>1 m²)

Expand to show TLE details & history
Last TLE update: 21 hours ago

TLE from 21 hours ago
0 STARLINK-33583
1 63503U 25071L   26197.44527997  .00011003  00000-0  33631-3 0  9998
2 63503  53.1580 256.8232 0000735  89.0272 271.0814 15.34400324 72550
Epoch: 2026-07-16T10:41Z
TLE epoch observation values (Epoch: 2026-07-16T10:41:12.189Z)
Latitude
-0.00008°
Longitude
162.23572°
Altitude
463.594 km
Speed
7.636 km/s
True Right ascension
17h 07m 17s
True Declination
0° 00' 00"
Sunlit
Object was in full shadow at epoch
Visualization orbit readout
Latitude
Unknown
Longitude
Unknown
Altitude
Unknown
Speed
Unknown
Apparent Right ascension
Unknown
Apparent Declination
Unknown
Sunlit
N/A
Visualization observer readout
Local Sidereal Time
20:31:52
Azimuth
Unknown
Elevation
Unknown
Doppler factor
Unknown
Orbital elements
Apogee altitude
463.462 km
Perigee altitude
462.457 km
Semi-major axis
6,841.096 km
Eccentricity
0.00007
Inclination
53.158°
RAAN
256.8232°
Arg. of periapsis
89.0272°
True anomaly
271.07298°
Mean anomaly
271.0814°
Eccentric anomaly
271.07719°
Mean motion
3.83579 °/min
Orbital period
93.85 mins
BSTAR
0.00033631
Loading maneuver chart data...
Computing Atmospheric mass density...
Loading historical data...
Loading historical data...
Loading historical data...
Loading historical data...
Loading historical data...
Loading historical data...
Loading historical data...

Documentation

Showing up to 5 results
|